User: anonymous   Login
Location: Brno
(49.2000°N, 16.6330°E)
Time: 13:07:15
(UTC+02:00)
Language:

Cosmos 2227 - Orbit

View from above orbital plane
View from above orbital plane
View from above satellite
View from above satellite

Ground track
Ground track

The orbit data is extracted from the following two-line orbital elements,

1 22284U 92093A   16204.42677757 -.00000238  00000-0 -10131-3 0  9993
2 22284  70.9752 206.7637 0020604 306.5209  53.4015 14.13255332216059
Epoch (UTC): 22 July 2016 10:14:33
Eccentricity: 0.0020604
inclination: 70.9752°
perigee height: 833 km
apogee height: 863 km
right ascension of ascending node: 206.7637°
argument of perigee: 306.5209°
revolutions per day: 14.13255332
mean anomaly at epoch: 53.4015°
orbit number at epoch: 21605

The dashed part of the orbit path shows where the satellite is in the earth's shadow,  

DLR